ONEWEB-0416, 51625

Orbit data source: Space-Track

ONEWEB-0416, 51625 is a payload satellite owned by One Web (NAA) (UK) in LEO that was launched on Thu, 10 Feb 2022 UTC via a SOYUZ-ST-B launch vehicle from the French Guiana (FRGUI). Payload-class satellites include a variety of spacecraft equipped with specific instruments for various scientific and technological missions. These include communications satellites like Starlink; space stations such as the ISS; scientific satellites like the Hubble; Earth observation satellites from companies like Planet Labs, Umbra, and HawkEye 360; GPS; miniature CubeSats for education and research; and military/defense satellites.

Loading next visibility...
Identifier
51625, 2022-012D
Orbit
LEO
Country
Flag of UKUK
Related business
Manufacturer
One Web
Mission
Operational Commercial Communications
Bus & Motor
ARROW, Unknown motor
Mass
148 kg wet, ~140 kg dry
Launch date (UTC)
2022-02-10 (4 years ago)
Launch vehicle
SOYUZ-ST-B
Launch site
French Guiana (FRGUI)
Object type
Payload
Rocket body
Debris
Shape & HBR
Trap Box + 2 Pan, 6.7 m
Radar Cross Section
3.464 m², Large (>1 m²)

Expand to show TLE details & history
Last TLE update: 2 days ago

TLE from 2 days ago
0 ONEWEB-0416
1 51625U 22012D   26171.38130700  .00000266  00000-0  72779-3 0  9994
2 51625  87.8827  35.6473 0002227  92.5149 267.6233 13.10276432209742
Epoch: 2026-06-20T09:09Z
TLE epoch observation values (Epoch: 2026-06-20T09:09:04.924Z)
Latitude
-0.00006°
Longitude
-10.21996°
Altitude
1,225.048 km
Speed
7.242 km/s
True Right ascension
02h 22m 35s
True Declination
0° 00' 00"
Sunlit
Object was in daylight at epoch
Visualization orbit readout
Latitude
Unknown
Longitude
Unknown
Altitude
Unknown
Speed
Unknown
Apparent Right ascension
Unknown
Apparent Declination
Unknown
Sunlit
N/A
Visualization observer readout
Local Sidereal Time
21:30:14
Azimuth
Unknown
Elevation
Unknown
Doppler factor
Unknown
Orbital elements
Apogee altitude
1,220.902 km
Perigee altitude
1,217.518 km
Semi-major axis
7,597.347 km
Eccentricity
0.00022
Inclination
87.8827°
RAAN
35.6473°
Arg. of periapsis
92.5149°
True anomaly
267.5978°
Mean anomaly
267.6233°
Eccentric anomaly
267.61055°
Mean motion
3.27756 °/min
Orbital period
109.84 mins
BSTAR
0.00072779
Loading maneuver chart data...
Computing Atmospheric mass density...
Loading historical data...
Loading historical data...
Loading historical data...
Loading historical data...
Loading historical data...
Loading historical data...
Loading historical data...

Documentation

Showing up to 5 results
|